Home > Weather > Tampere > Past weeks

Flag for Finland Weather for the Past 2 Weeks in Tampere, Finland

Now
66 °F

Passing clouds.


Feels Like: 66 °F
Forecast: 38 / 63 °F
Wind: 5 mph from Southwest

Location: Tampere / Pirkkala

Current Time: May 4, 2016 at 7:29:58 PM

Latest Report: May 4, 2016 at 6:50 PM


Visibility: N/A

Pressure: 30.18 "Hg

Humidity: 19%

Dew Point: 23 °F

Location of TampereLocation

Historic Weather in Tampere — Graph

°F

Tampere Temperature Yesterday

Maximum temperature yesterday: 63 °F (at 3:50 PM)
Minimum temperature yesterday: 39 °F (at 1:20 AM)
Average temperature yesterday: 52 °F

High & Low Weather Summary for the Past Weeks

 TemperatureHumidityPressure
High66 °F (May 4, 4:50 PM)100% (Apr 19, 6:20 PM)30.36 "Hg (Apr 19, 6:20 PM)
Low28 °F (Apr 21, 5:20 AM)14% (May 4, 6:20 PM)29.39 "Hg (Apr 25, 7:50 AM)
Average42 °F74%29.94 "Hg
* Reported Apr 19 6:20 PM — May 4 6:20 PM, Tampere, Weather by CustomWeather, © 2016

Note: Actual official high and low records may vary slightly from our data, if they occured in-between our weather recording intervals... More about our weather records

Advertising

Tampere Weather History for the Previous 24 Hours

Scroll right to see more
 ConditionsComfort  
Time TempWeatherWind HumidityBarometerVisibility
6:20 PM
Wed, May 4
66 °FPassing clouds.6 mph14%30.18 "HgN/A
5:20 PM66 °FPassing clouds.6 mph21%30.18 "HgN/A
4:50 PM66 °FPassing clouds.6 mph21%30.18 "HgN/A
4:20 PM64 °FPassing clouds.7 mph22%30.18 "HgN/A
3:50 PM64 °FPassing clouds.7 mph19%30.18 "HgN/A
3:20 PM64 °FSunny.10 mph22%30.18 "Hg10 mi
1:50 PM64 °FSunny.3 mph28%30.18 "Hg10 mi
1:20 PM63 °FSunny.6 mph25%30.18 "Hg10 mi
12:20 PM61 °FSunny.3 mph29%30.18 "Hg10 mi
11:50 AM61 °FSunny.3 mph27%30.18 "Hg10 mi
10:50 AM59 °FSunny.3 mph29%30.18 "Hg10 mi
10:20 AM57 °FSunny.2 mph44%30.18 "Hg10 mi
9:20 AM54 °FPassing clouds.5 mph51%30.18 "HgN/A
8:50 AM52 °FSunny.7 mph47%30.15 "Hg10 mi
8:20 AM50 °FPassing clouds.5 mph58%30.15 "HgN/A
3:50 AM36 °FClear.2 mph81%30.12 "Hg10 mi
3:20 AM37 °FClear.No wind75%30.12 "Hg10 mi
2:50 AM37 °FClear.No wind75%30.12 "Hg10 mi
1:50 AM39 °FClear.No wind75%30.12 "Hg10 mi
1:20 AM41 °FClear.2 mph76%30.12 "Hg10 mi
12:50 AM43 °FClear.2 mph71%30.12 "Hg10 mi
12:20 AM46 °FPassing clouds.5 mph53%30.12 "HgN/A
11:50 PM
Tue, May 3
50 °FClear.3 mph50%30.12 "Hg10 mi
11:20 PM48 °FClear.1 mph54%30.09 "Hg10 mi
10:50 PM48 °FClear.5 mph58%30.09 "Hg10 mi
10:20 PM48 °FSunny.1 mph58%30.09 "Hg10 mi
9:50 PM50 °FSunny.1 mph54%30.09 "Hg10 mi
9:20 PM54 °FSunny.2 mph44%30.09 "Hg10 mi
8:50 PM59 °FSunny.2 mph36%30.07 "Hg10 mi
8:20 PM63 °FSunny.3 mph24%30.07 "Hg10 mi
7:50 PM63 °FSunny.2 mph24%30.07 "Hg10 mi
7:20 PM63 °FPassing clouds.3 mph22%30.07 "HgN/A
Weather by CustomWeather, © 2016

See weather overviewHow to use our weather pages